(489060) = 2005 YP187

Discovered at Mount Lemmon on 2005-12-28 by Mt. Lemmon Survey.

Orbit

Orbit type: Main Belt

Note: WebGL enabled browser required.

epoch2024-03-31.0
epoch JD2460400.5
perihelion date2023-09-14.01707
perihelion JD2460201.51707
argument of perihelion (°)133.53619
ascending node (°)300.80804
inclination (°)11.23795
eccentricity0.1413736
perihelion distance (AU)2.0145888
Tisserand w.r.t. Jupiter3.5
ΔV w.r.t. Earth (km/sec)9.5
semimajor axis (AU)2.3462925
mean anomaly (°)54.56906
mean daily motion (°/day)0.27423990
aphelion distance (AU)2.678
period (years)3.59
P-vector [x]0.25791885
P-vector [y]0.82071469
P-vector [z]0.50980905
Q-vector [x]-0.95155694
Q-vector [y]0.30719221
Q-vector [z]-0.01312782
absolute magnitude18.07
phase slope0.15
uncertainty0
referenceMPEC 2024-E123
observations used140
oppositions8
arc length (days)6620
first opposition used2005
last opposition used2024
residual rms (arc-secs)0.78
perturbers coarse indicatorM-v
perturbers precise indicator003Ek
first observation date used2005-12-28.0
last observation date used2024-02-12.0
computer nameMPCLINUX
JD of orbit computation2457847.206078
perihelion JD uncertainty (days)3.0187E-04
argument of perihelion uncertainty (°)8.7450E-05
ascending node uncertainty (°)2.3932E-05
inclination uncertainty (°)1.0783E-05
eccentricity uncertainty 6.5400E-08
perihelion distance uncertainty (AU)1.4232E-07
Minimum Orbit Intersection Distances (in AU)
for orbit epoch: 2460200.5, reference: E2024-CG3
Mercury1.70825
Venus1.304
Earth1.0458
Mars0.44594
Jupiter2.56066
Saturn7.01694
Uranus16.1044
Neptune27.6508

Observations

142 total observations over interval: 2005 12 28.39081 – 2024 02 12.288877
These data are available for download (format description).

